TimeEST,TemperatureF,Dew PointF,Humidity,Sea Level PressureIn,VisibilityMPH,Wind Direction,Wind SpeedMPH,Gust SpeedMPH,PrecipitationIn,Events,Conditions,WindDirDegrees,DateUTC
12:15 AM,26.6,26.6,100,30.29,10.0,Calm,Calm,-,N/A,,Clear,0,2012-12-12 05:15:00
12:35 AM,26.6,24.8,93,30.29,10.0,Calm,Calm,-,N/A,,Clear,0,2012-12-12 05:35:00
12:55 AM,26.6,23.0,86,30.29,10.0,Calm,Calm,-,N/A,,Clear,0,2012-12-12 05:55:00
1:15 AM,26.6,24.8,93,30.29,7.0,Calm,Calm,-,N/A,,Clear,0,2012-12-12 06:15:00
1:35 AM,26.6,24.8,93,30.29,7.0,Calm,Calm,-,N/A,,Clear,0,2012-12-12 06:35:00
1:55 AM,26.6,24.8,93,30.30,10.0,Calm,Calm,-,N/A,,Clear,0,2012-12-12 06:55:00
2:15 AM,26.6,23.0,86,30.31,7.0,Calm,Calm,-,N/A,,Clear,0,2012-12-12 07:15:00
2:35 AM,24.8,23.0,93,30.31,7.0,Calm,Calm,-,N/A,,Clear,0,2012-12-12 07:35:00
2:55 AM,24.8,23.0,93,30.32,7.0,Calm,Calm,-,N/A,,Clear,0,2012-12-12 07:55:00
3:15 AM,24.8,23.0,93,30.33,7.0,Calm,Calm,-,N/A,,Clear,0,2012-12-12 08:15:00
3:35 AM,24.8,23.0,93,30.34,7.0,Calm,Calm,-,N/A,,Clear,0,2012-12-12 08:35:00
3:55 AM,23.0,23.0,100,30.34,7.0,Calm,Calm,-,N/A,,Clear,0,2012-12-12 08:55:00
4:15 AM,23.0,21.2,93,30.35,10.0,Calm,Calm,-,N/A,,Clear,0,2012-12-12 09:15:00
4:35 AM,23.0,21.2,93,30.34,7.0,Calm,Calm,-,N/A,,Clear,0,2012-12-12 09:35:00
4:55 AM,23.0,21.2,93,30.35,7.0,Calm,Calm,-,N/A,,Clear,0,2012-12-12 09:55:00
5:15 AM,23.0,21.2,93,30.35,10.0,Calm,Calm,-,N/A,,Clear,0,2012-12-12 10:15:00
5:35 AM,23.0,21.2,93,30.35,7.0,Calm,Calm,-,N/A,,Clear,0,2012-12-12 10:35:00
5:55 AM,23.0,21.2,93,30.37,10.0,Calm,Calm,-,N/A,,Clear,0,2012-12-12 10:55:00
6:15 AM,23.0,21.2,93,30.37,7.0,Calm,Calm,-,N/A,,Clear,0,2012-12-12 11:15:00
6:35 AM,23.0,21.2,93,30.39,7.0,Calm,Calm,-,N/A,,Clear,0,2012-12-12 11:35:00
7:15 AM,21.2,19.4,93,30.39,10.0,Calm,Calm,-,N/A,,Scattered Clouds,0,2012-12-12 12:15:00
7:35 AM,23.0,21.2,93,30.40,0.8,Calm,Calm,-,N/A,,Overcast,0,2012-12-12 12:35:00
7:55 AM,24.8,23.0,93,30.41,0.2,Calm,Calm,-,N/A,Fog,Light Freezing Fog,0,2012-12-12 12:55:00
8:15 AM,24.8,23.0,93,30.42,0.2,Calm,Calm,-,N/A,Fog,Light Freezing Fog,0,2012-12-12 13:15:00
8:35 AM,24.8,23.0,93,30.43,0.2,Calm,Calm,-,N/A,Fog,Light Freezing Fog,0,2012-12-12 13:35:00
8:55 AM,26.6,24.8,93,30.43,0.5,Calm,Calm,-,N/A,Fog,Light Freezing Fog,0,2012-12-12 13:55:00
9:15 AM,26.6,26.6,100,30.43,5.0,Calm,Calm,-,N/A,,Scattered Clouds,0,2012-12-12 14:15:00
9:35 AM,28.4,28.4,100,30.44,7.0,Calm,Calm,-,N/A,,Clear,0,2012-12-12 14:35:00
9:55 AM,30.2,30.2,100,30.44,10.0,Calm,Calm,-,N/A,,Clear,0,2012-12-12 14:55:00
10:15 AM,32.0,30.2,93,30.45,7.0,Calm,Calm,-,N/A,,Clear,0,2012-12-12 15:15:00
10:35 AM,32.0,28.4,87,30.45,10.0,Calm,Calm,-,N/A,,Clear,0,2012-12-12 15:35:00
10:55 AM,35.6,28.4,75,30.44,10.0,Calm,Calm,-,N/A,,Clear,0,2012-12-12 15:55:00
11:15 AM,35.6,28.4,75,30.44,10.0,Calm,Calm,-,N/A,,Clear,0,2012-12-12 16:15:00
11:55 AM,37.4,24.8,60,30.43,10.0,ESE,5.8,-,N/A,,Clear,120,2012-12-12 16:55:00
12:15 PM,37.4,26.6,65,30.41,10.0,East,5.8,-,N/A,,Clear,90,2012-12-12 17:15:00
12:35 PM,39.2,24.8,56,30.40,10.0,NE,3.5,-,N/A,,Clear,50,2012-12-12 17:35:00
12:55 PM,41.0,24.8,53,30.40,10.0,Calm,Calm,-,N/A,,Clear,0,2012-12-12 17:55:00
1:15 PM,41.0,24.8,53,30.39,10.0,Calm,Calm,-,N/A,,Clear,0,2012-12-12 18:15:00
1:55 PM,41.0,23.0,49,30.38,10.0,Calm,Calm,-,N/A,,Clear,0,2012-12-12 18:55:00
2:15 PM,42.8,24.8,49,30.38,10.0,Calm,Calm,-,N/A,,Clear,0,2012-12-12 19:15:00
2:35 PM,41.0,23.0,49,30.37,10.0,ESE,3.5,-,N/A,,Clear,110,2012-12-12 19:35:00
2:55 PM,42.8,24.8,49,30.37,10.0,ENE,5.8,-,N/A,,Clear,70,2012-12-12 19:55:00
3:15 PM,41.0,23.0,49,30.37,10.0,ENE,3.5,-,N/A,,Clear,60,2012-12-12 20:15:00
3:35 PM,41.0,24.8,53,30.37,10.0,East,4.6,-,N/A,,Clear,90,2012-12-12 20:35:00
3:55 PM,41.0,24.8,53,30.37,10.0,Calm,Calm,-,N/A,,Clear,0,2012-12-12 20:55:00
4:15 PM,41.0,23.0,49,30.38,10.0,ENE,3.5,-,N/A,,Clear,60,2012-12-12 21:15:00
4:35 PM,39.2,23.0,52,30.38,10.0,Calm,Calm,-,N/A,,Clear,0,2012-12-12 21:35:00
4:55 PM,35.6,26.6,70,30.39,10.0,Calm,Calm,-,N/A,,Clear,0,2012-12-12 21:55:00
5:15 PM,33.8,26.6,75,30.39,10.0,Calm,Calm,-,N/A,,Clear,0,2012-12-12 22:15:00
5:35 PM,32.0,26.6,80,30.39,10.0,Calm,Calm,-,N/A,,Clear,0,2012-12-12 22:35:00
5:55 PM,32.0,26.6,80,30.40,10.0,Calm,Calm,-,N/A,,Clear,0,2012-12-12 22:55:00
6:15 PM,32.0,26.6,80,30.40,10.0,Calm,Calm,-,N/A,,Clear,0,2012-12-12 23:15:00
6:35 PM,30.2,24.8,80,30.40,10.0,Calm,Calm,-,N/A,,Clear,0,2012-12-12 23:35:00
6:55 PM,30.2,24.8,80,30.40,10.0,Calm,Calm,-,N/A,,Clear,0,2012-12-12 23:55:00
7:55 PM,28.4,24.8,86,30.41,10.0,Calm,Calm,-,N/A,,Clear,0,2012-12-13 00:55:00
8:15 PM,28.4,24.8,86,30.41,10.0,Calm,Calm,-,N/A,,Clear,0,2012-12-13 01:15:00
8:55 PM,26.6,24.8,93,30.41,10.0,Calm,Calm,-,N/A,,Clear,0,2012-12-13 01:55:00
9:15 PM,26.6,24.8,93,30.42,10.0,Calm,Calm,-,N/A,,Clear,0,2012-12-13 02:15:00
9:35 PM,26.6,23.0,86,30.42,10.0,Calm,Calm,-,N/A,,Clear,0,2012-12-13 02:35:00
9:55 PM,26.6,23.0,86,30.41,10.0,Calm,Calm,-,N/A,,Clear,0,2012-12-13 02:55:00
10:15 PM,26.6,23.0,86,30.41,10.0,Calm,Calm,-,N/A,,Clear,0,2012-12-13 03:15:00
10:35 PM,24.8,23.0,93,30.41,10.0,Calm,Calm,-,N/A,,Clear,0,2012-12-13 03:35:00
10:55 PM,24.8,23.0,93,30.40,10.0,Calm,Calm,-,N/A,,Clear,0,2012-12-13 03:55:00
11:15 PM,24.8,23.0,93,30.40,10.0,Calm,Calm,-,N/A,,Clear,0,2012-12-13 04:15:00
11:55 PM,24.8,23.0,93,30.39,10.0,Calm,Calm,-,N/A,,Clear,0,2012-12-13 04:55:00